User: anonymous   Login
Location: Caltech
(34.1382°N, 118.1253°W)
Time: 15:24:28
(UTC-08:00)
Language:

ITAMSAT 1 - Orbit

View from above orbital plane
View from above orbital plane
View from above satellite
View from above satellite

Ground track
Ground track

The orbit data is extracted from the following two-line orbital elements,

1 22826U 93061D   14356.10627520  .00000443  00000-0  18825-3 0  6053
2 22826 098.6814 301.5894 0010113 099.7242 260.5083 14.30116411107775
Epoch (UTC): 22 December 2014 02:33:02
Eccentricity: 0.0010113
inclination: 98.6814°
perigee height: 784 km
apogee height: 798 km
right ascension of ascending node: 301.5894°
argument of perigee: 99.7242°
revolutions per day: 14.30116411
mean anomaly at epoch: 260.5083°
orbit number at epoch: 10777

The dashed part of the orbit path shows where the satellite is in the earth's shadow,  

DLR